2025-007M

Last updated on Tue Jan 14 2025 00:02:05 GMT+0000 (Coordinated Universal Time)

1 62586U 25007M 25013.44796831 -.00003077 97242-5 00000+0 0 9990 2 62586 54.9448 126.7484 0321382 358.8519 113.6050 15.43709126 41
UTC large
Height (km)
Speed (km/s)
/
Latitude / Longitude
Inclination (degrees)
Orbital Period (minutes)
Azimuth
Elevation
Range (km)
Doppler Factor

Next 0 passes for location: London (51.5072 / 0.1276)

Sorry there are no passes over London.